KAZSTSAT

Last updated on Thu Nov 21 2024 00:02:28 GMT+0000 (Coordinated Universal Time)

1 43783U 18099AB 24325.59380276 .00002478 00000+0 21673-3 0 9990 2 43783 97.5050 10.6413 0007565 167.1813 192.9603 14.97602405325387
UTC large
Height (km)
Speed (km/s)
/
Latitude / Longitude
Inclination (degrees)
Orbital Period (minutes)
Azimuth
Elevation
Range (km)
Doppler Factor

Next 0 passes for location: London (51.5072 / 0.1276)

Sorry there are no passes over London.